Date String (YYYY-MM-DD hh:mm:ss) UTC,Instrument flags,Ambient pressure (hPa),Sample flow (lpm),Bypass flow (lpm),Sample temperature (°C),Ambient temperature (°C),ASC tube jacket temperature (°C),LED temperature (°C),Box temperature (°C),Sample RH (%),Span deviation,Mass concentration (μg/m³),Mass concentration (μg/m³),Mass concentration (μg/m³)
DateTimeUTC,F1_M11,P_M11,Q1_M11,Q2_M11,T1_M11,T2_M11,T3_M11,T4_M11,T5_M11,U1_M11,ZSPAN_M11,X0_M11,X2_M11,X1_M11
2023-05-29 04:00:00,,0830.1,5.00,0.00,29.6,28.1,00.0,37.9,31.3,28.1,0000.0,0014.97,0005.32,0003.94
2023-05-29 04:01:00,,0830.1,5.00,0.00,29.6,28.1,00.0,37.9,31.3,28.0,0000.0,0016.58,0005.45,0003.95
2023-05-29 04:02:00,,0830.1,5.00,0.00,29.6,28.2,00.0,37.9,31.3,28.1,0000.0,0018.69,0005.57,0003.95
2023-05-29 04:03:00,,0830.1,5.01,0.00,29.6,28.2,00.0,37.9,31.3,28.0,0000.0,0019.86,0005.65,0003.96
2023-05-29 04:04:00,,0830.1,5.00,0.00,29.7,28.2,00.0,37.9,31.3,27.9,0000.0,0022.03,0005.74,0003.97
2023-05-29 04:05:00,,0830.1,5.00,0.00,29.7,28.2,00.0,38.0,31.3,27.8,0000.0,0022.08,0005.85,0003.97
2023-05-29 04:06:00,,0830.0,5.01,0.00,29.7,28.2,00.0,38.0,31.3,27.6,0000.0,0022.43,0005.89,0003.96
2023-05-29 04:07:00,,0830.0,5.00,0.00,29.7,28.2,00.0,38.0,31.3,27.3,0000.0,0022.06,0005.83,0003.93
2023-05-29 04:08:00,,0830.0,5.00,0.00,29.7,28.2,00.0,38.0,31.3,26.8,0000.0,0021.63,0005.82,0003.91
2023-05-29 04:09:00,,0830.0,5.00,0.00,29.7,28.2,00.0,38.0,31.4,26.8,0000.0,0020.34,0005.74,0003.89
2023-05-29 04:10:00,,0830.0,4.99,0.00,29.7,28.2,00.0,38.0,31.4,26.6,0000.0,0019.78,0005.64,0003.86
2023-05-29 04:11:00,,0830.0,5.00,0.00,29.7,28.3,00.0,38.0,31.4,26.6,0000.0,0019.18,0005.51,0003.82
2023-05-29 04:12:00,,0830.0,5.00,0.00,29.8,28.3,00.0,38.1,31.4,26.7,0000.0,0017.65,0005.41,0003.81
2023-05-29 04:13:00,,0830.0,5.00,0.00,29.8,28.3,00.0,38.1,31.4,26.7,0000.0,0015.39,0005.30,0003.80
2023-05-29 04:14:00,,0830.0,5.01,0.00,29.8,28.3,00.0,38.1,31.4,26.6,0000.0,0014.07,0005.26,0003.79
2023-05-29 04:15:00,,0830.0,5.00,0.00,29.8,28.3,00.0,38.1,31.4,26.5,0000.0,0012.07,0005.15,0003.75
2023-05-29 04:16:00,,0830.0,5.00,0.00,29.8,28.4,00.0,38.1,31.5,26.4,0000.0,0011.36,0005.03,0003.73
2023-05-29 04:17:00,,0830.0,5.00,0.00,29.8,28.4,00.0,38.1,31.5,26.4,0000.0,0010.69,0004.91,0003.69
2023-05-29 04:18:00,,0830.0,5.00,0.00,29.9,28.4,00.0,38.1,31.5,26.4,0000.0,0010.51,0004.84,0003.66
2023-05-29 04:19:00,,0830.0,5.00,0.00,29.9,28.4,00.0,38.2,31.5,26.4,0000.0,0009.82,0004.76,0003.64
2023-05-29 04:20:00,,0830.0,5.01,0.00,29.9,28.4,00.0,38.2,31.5,26.4,0000.0,0009.56,0004.67,0003.61
2023-05-29 04:21:00,,0830.0,5.00,0.00,29.9,28.5,00.0,38.2,31.5,26.4,0000.0,0009.63,0004.65,0003.58
2023-05-29 04:22:00,,0830.0,5.00,0.00,29.9,28.5,00.0,38.2,31.5,26.2,0000.0,0009.33,0004.62,0003.57
2023-05-29 04:23:00,,0830.0,5.00,0.00,29.9,28.5,00.0,38.2,31.5,26.2,0000.0,0009.37,0004.60,0003.55
2023-05-29 04:24:00,,0830.0,4.99,0.00,29.9,28.5,00.0,38.2,31.6,26.3,0000.0,0009.48,0004.52,0003.52
2023-05-29 04:25:00,,0830.0,4.99,0.00,29.9,28.5,00.0,38.2,31.6,26.3,0000.0,0009.50,0004.49,0003.49
2023-05-29 04:26:00,,0830.0,5.00,0.00,30.0,28.5,00.0,38.2,31.6,26.2,0000.0,0010.30,0004.47,0003.49
2023-05-29 04:27:00,,0830.0,5.01,0.00,30.0,28.5,00.0,38.3,31.6,26.1,0000.0,0010.87,0004.47,0003.47
2023-05-29 04:28:00,,0830.1,5.01,0.00,30.0,28.5,00.0,38.3,31.6,26.1,0000.0,0011.43,0004.49,0003.48
2023-05-29 04:29:00,,0830.0,5.00,0.00,30.0,28.5,00.0,38.3,31.6,26.0,0000.0,0012.27,0004.58,0003.49
2023-05-29 04:30:00,,0830.0,4.99,0.00,30.0,28.5,00.0,38.3,31.6,26.0,0000.0,0013.69,0004.64,0003.50
2023-05-29 04:31:00,,0830.0,4.99,0.00,30.0,28.6,00.0,38.3,31.6,26.1,0000.0,0013.95,0004.68,0003.51
2023-05-29 04:32:00,,0830.0,4.99,0.00,30.0,28.6,00.0,38.3,31.6,26.0,0000.0,0014.11,0004.73,0003.54
2023-05-29 04:33:00,,0830.0,5.00,0.00,30.0,28.6,00.0,38.3,31.7,25.9,0000.0,0014.52,0004.78,0003.55
2023-05-29 04:34:00,,0830.0,5.00,0.00,30.1,28.6,00.0,38.3,31.7,25.8,0000.0,0014.50,0004.81,0003.55
2023-05-29 04:35:00,,0830.0,5.01,0.00,30.1,28.6,00.0,38.4,31.7,25.8,0000.0,0014.51,0004.83,0003.57
2023-05-29 04:36:00,,0830.0,5.01,0.00,30.1,28.6,00.0,38.4,31.7,25.7,0000.0,0014.58,0004.87,0003.58
2023-05-29 04:37:00,,0830.0,5.00,0.00,30.1,28.6,00.0,38.4,31.7,25.8,0000.0,0013.47,0004.85,0003.59
2023-05-29 04:38:00,,0830.0,5.00,0.00,30.1,28.6,00.0,38.4,31.7,25.8,0000.0,0012.96,0004.86,0003.60
2023-05-29 04:39:00,,0830.0,5.00,0.00,30.1,28.6,00.0,38.4,31.7,25.8,0000.0,0012.95,0004.86,0003.61
2023-05-29 04:40:00,,0830.0,5.00,0.00,30.1,28.6,00.0,38.4,31.7,25.7,0000.0,0012.34,0004.77,0003.61
2023-05-29 04:41:00,,0830.0,5.00,0.00,30.1,28.5,00.0,38.4,31.7,25.8,0000.0,0011.00,0004.71,0003.60
2023-05-29 04:42:00,,0830.0,4.99,0.00,30.1,26.9,00.0,38.3,31.5,25.7,0000.0,0011.20,0004.72,0003.61
2023-05-29 04:43:00,,0830.1,5.01,0.00,30.0,25.5,00.0,38.2,31.3,25.8,0000.0,0011.30,0004.72,0003.60
2023-05-29 04:44:00,,0830.0,5.00,0.00,29.9,25.3,00.0,38.2,31.1,26.0,0000.0,0010.80,0004.67,0003.60
2023-05-29 04:45:00,,0830.0,5.01,0.00,29.8,25.5,00.0,38.2,31.0,26.2,0000.0,0010.95,0004.67,0003.61
2023-05-29 04:46:00,,0830.1,5.01,0.00,29.7,25.9,00.0,38.1,31.0,26.3,0000.0,0010.97,0004.70,0003.61
2023-05-29 04:47:00,,0830.1,5.00,0.00,29.7,26.2,00.0,38.1,31.1,26.3,0000.0,0011.09,0004.71,0003.61
2023-05-29 04:48:00,,0830.0,5.01,0.00,29.6,26.6,00.0,38.1,31.1,26.3,0000.0,0011.18,0004.73,0003.60
2023-05-29 04:49:00,,0830.1,4.99,0.00,29.6,26.9,00.0,38.1,31.1,26.2,0000.0,0011.13,0004.73,0003.59
2023-05-29 04:50:00,,0830.0,5.00,0.00,29.6,27.1,00.0,38.1,31.1,26.4,0000.0,0010.78,0004.73,0003.58
2023-05-29 04:51:00,,0830.1,5.01,0.00,29.6,27.3,00.0,38.1,31.1,26.7,0000.0,0010.61,0004.78,0003.58
2023-05-29 04:52:00,,0830.1,5.00,0.00,29.6,27.5,00.0,38.0,31.1,26.6,0000.0,0011.52,0004.79,0003.59
2023-05-29 04:53:00,,0830.1,4.99,0.00,29.6,27.6,00.0,38.0,31.2,26.5,0000.0,0012.18,0004.73,0003.58
2023-05-29 04:54:00,,0830.0,4.99,0.00,29.6,27.7,00.0,38.0,31.2,26.5,0000.0,0011.93,0004.67,0003.57
2023-05-29 04:55:00,,0830.0,5.01,0.00,29.6,27.8,00.0,38.0,31.2,26.5,0000.0,0012.05,0004.68,0003.56
2023-05-29 04:56:00,,0830.0,5.01,0.00,29.6,27.8,00.0,38.0,31.2,26.6,0000.0,0011.87,0004.62,0003.56
2023-05-29 04:57:00,,0830.0,5.00,0.00,29.6,27.9,00.0,38.0,31.2,26.5,0000.0,0011.68,0004.60,0003.56
2023-05-29 04:58:00,,0830.0,5.00,0.00,29.6,28.0,00.0,38.0,31.2,26.5,0000.0,0011.61,0004.57,0003.57
2023-05-29 04:59:00,,0830.0,4.99,0.00,29.6,28.0,00.0,38.0,31.2,26.5,0000.0,0011.75,0004.60,0003.58
